Location: Unspecified
(0.0000°N, 0.0000°E)
Time: 11:52:18
(UTC+02:00)

Transit 2A - Visible Passes

Search period start: 27 August 2016 00:00
Search period end: 06 September 2016 00:00
Orbit: 592 x 968 km, 66.7° (Epoch: 26 August)

Date Brightness Start Highest point End Pass type
(mag) Time Alt. Az. Time Alt. Az. Time Alt. Az.
27 Aug 6.2 20:34:13 10° N 20:39:08 43° ENE 20:43:37 10° SE visible
28 Aug 8.5 21:44:49 10° WNW 21:48:00 17° WSW 21:51:00 10° SSW visible
29 Aug 7.7 21:09:46 10° NW 21:14:08 29° WSW 21:18:10 10° SSW visible
30 Aug 6.7 20:35:19 10° NNW 20:40:16 51° WSW 20:44:47 10° S visible
31 Aug 8.3 07:25:43 10° SSE 07:30:27 30° ESE 07:35:33 10° NE visible
01 Sep 8.8 06:52:53 10° SSE 06:56:35 18° ESE 07:00:29 10° ENE visible
02 Sep 9.3 06:21:45 10° ESE 06:22:42 10° ESE 06:23:41 10° E visible
02 Sep 8.7 20:38:40 10° WNW 20:41:16 14° WSW 20:43:45 10° SW visible
03 Sep 6.3 07:26:01 10° SSW 07:31:33 90° WNW 07:37:37 10° NNE visible
04 Sep 6.9 06:52:15 10° S 06:57:38 56° ESE 07:03:32 10° NNE visible
05 Sep 7.8 06:18:48 10° S 06:23:45 34° ESE 06:29:07 10° NE visible
